1532818800.1,51684,20.75,74202.3,7.63,-13.33,-13.73,0,*75
1532818801.3,51685,20.81,74200.8,7.63,-13.19,-13.65,0,*7B
1532818802.53,51686,20.81,74200.8,7.61,-13.23,-13.65,0,*73
1532818803.75,51687,20.81,74200.0,7.63,-13.37,-13.73,0,*72
1532818804.97,51688,20.81,74200.8,7.63,-13.33,-13.73,0,*79
1532818806.19,51689,20.81,74202.0,7.63,-13.33,-13.65,0,*7F
1532818807.4,51690,20.75,74198.5,7.63,-13.33,-13.65,0,*77
1532818808.62,51691,20.81,74200.8,7.63,-13.37,-13.73,0,*75
1532818809.84,51692,20.81,74202.8,7.63,-13.33,-13.65,0,*75
1532818811.04,51693,20.81,74200.8,7.63,-13.19,-13.65,0,*7C
1532818812.29,51694,20.81,74202.5,7.61,-13.33,-13.65,0,*71
1532818813.51,51695,20.81,74202.0,7.63,-13.15,-13.61,0,*72
1532818814.73,51696,20.81,74202.3,7.63,-13.29,-13.51,0,*7D
1532818815.98,51697,20.81,74202.5,7.63,-13.29,-13.61,0,*7F
1532818817.23,51698,20.81,74202.0,7.61,-13.33,-13.65,0,*7D
1532818818.45,51699,20.75,74198.8,7.63,-13.33,-13.65,0,*7E
1532818819.67,51700,20.75,74200.5,7.63,-13.37,-13.65,0,*7B
1532818820.89,51701,20.75,74198.8,7.63,-13.33,-13.73,0,*79
1532818822.11,51702,20.81,74200.8,7.63,-13.19,-13.61,0,*71
1532818823.33,51703,20.81,74202.5,7.63,-13.33,-13.65,0,*7C
1532818824.55,51704,20.81,74202.8,7.63,-13.33,-13.65,0,*7B
1532818825.77,51705,20.75,74198.8,7.61,-13.43,-13.93,0,*76
1532818826.99,51706,20.75,74200.8,7.61,-13.43,-13.93,0,*75
1532818828.21,51707,20.81,74202.0,7.59,-13.43,-13.79,0,*7B
1532818829.45,51708,20.81,74202.3,7.61,-13.43,-13.79,0,*7F
1532818830.7,51709,20.75,74202.3,7.59,-13.37,-13.83,0,*73
1532818831.95,51710,20.81,74200.0,7.61,-13.43,-13.83,0,*73
1532818833.19,51711,20.81,74206.8,7.61,-13.43,-13.83,0,*72
1532818834.39,51712,20.81,74202.5,7.59,-13.51,-13.93,0,*78
1532818835.64,51713,20.81,74200.0,7.61,-13.51,-13.79,0,*76
1532818836.86,51714,20.81,74204.5,7.59,-13.43,-13.79,0,*79
1532818838.11,51715,20.81,74202.0,7.61,-13.51,-13.79,0,*70
1532818839.35,51716,20.75,74202.0,7.61,-13.43,-13.79,0,*70
1532818840.57,51717,20.81,74200.5,7.59,-13.43,-13.83,0,*7F
1532818841.8,51718,20.81,74200.8,7.59,-13.43,-13.83,0,*70
1532818843.01,51719,20.75,74200.8,7.59,-13.43,-13.83,0,*71
1532818844.26,51720,20.81,74202.8,7.57,-13.47,-13.87,0,*75
1532818845.5,51721,20.75,74200.0,7.57,-13.55,-13.87,0,*77
1532818846.75,51722,20.81,74200.8,7.57,-13.43,-13.87,0,*73
1532818847.99,51723,20.81,74200.8,7.57,-13.55,-13.87,0,*75
1532818849.21,51724,20.75,74200.3,7.59,-13.33,-13.69,0,*7C
1532818850.45,51725,20.81,74202.8,7.59,-13.37,-13.79,0,*78
1532818851.72,51726,20.81,74202.0,7.57,-13.37,-13.83,0,*70
1532818852.96,51727,20.81,74204.5,7.57,-13.47,-13.83,0,*76
1532818854.21,51728,20.81,74204.0,7.57,-13.43,-13.83,0,*7D
1532818855.45,51729,20.81,74204.5,7.57,-13.37,-13.69,0,*7B
1532818856.7,51730,20.81,74202.8,7.57,-13.29,-13.55,0,*73
1532818857.95,51731,20.81,74206.0,7.57,-13.37,-13.73,0,*79
1532818859.17,51732,20.81,74206.5,7.57,-13.23,-13.69,0,*74
1532818860.41,51733,20.75,74200.3,7.57,-13.37,-13.69,0,*70
1532818861.69,51734,20.75,74200.3,7.57,-13.37,-13.61,0,*7F
1532818862.93,51735,20.75,74202.5,7.57,-13.37,-13.69,0,*76
1532818864.16,51736,20.75,74200.8,7.55,-13.43,-13.87,0,*74
1532818865.38,51737,20.81,74202.0,7.55,-13.47,-13.87,0,*71
1532818866.62,51738,20.81,74202.5,7.57,-13.47,-13.83,0,*78
1532818867.86,51739,20.75,74202.3,7.57,-13.47,-13.83,0,*79
1532818869.1,51740,20.75,74200.3,7.57,-13.47,-13.87,0,*73
1532818870.34,51741,20.75,74200.0,7.57,-13.43,-13.83,0,*72
1532818871.59,51742,20.81,74202.5,7.57,-13.47,-13.83,0,*75
1532818872.83,51743,20.75,74200.8,7.57,-13.47,-13.87,0,*70
1532818874.05,51744,20.81,74202.5,7.55,-13.61,-13.93,0,*74
1532818875.29,51745,20.75,74202.8,7.55,-13.51,-14.01,0,*7A
1532818876.52,51746,20.75,74200.0,7.55,-13.47,-14.01,0,*7E
1532818877.74,51747,20.81,74204.5,7.55,-13.65,-14.05,0,*7B
1532818878.97,51748,20.81,74202.5,7.55,-13.65,-14.05,0,*74
1532818880.2,51749,20.81,74202.5,7.55,-13.65,-14.05,0,*75
1532818881.46,51750,20.75,74202.3,7.55,-13.61,-14.01,0,*7D
1532818882.68,51751,20.75,74200.3,7.55,-13.65,-14.05,0,*7C
1532818883.97,51752,20.81,74206.5,7.53,-13.61,-14.01,0,*79
1532818885.19,51753,20.81,74206.3,7.51,-13.65,-14.05,0,*7A
1532818886.42,51754,20.81,74206.5,7.51,-13.65,-14.05,0,*7D
1532818887.61,51755,20.81,74202.5,7.51,-13.55,-13.93,0,*77
1532818888.84,51756,20.81,74204.0,7.51,-13.55,-13.97,0,*70
1532818890.12,51757,20.75,74200.5,7.53,-13.61,-14.01,0,*7C
1532818891.36,51758,20.81,74202.5,7.53,-13.51,-13.93,0,*7C
1532818892.58,51759,20.75,74202.5,7.51,-13.65,-13.97,0,*7C
1532818893.81,51760,20.75,74200.3,7.51,-13.65,-14.05,0,*7A
1532818895.03,51761,20.81,74206.3,7.51,-13.55,-14.05,0,*78
1532818896.26,51762,20.75,74204.3,7.51,-13.55,-13.97,0,*77
1532818897.49,51763,20.81,74206.0,7.53,-13.51,-13.93,0,*74
1532818898.72,51764,20.75,74204.3,7.51,-13.65,-14.05,0,*7E
1532818899.94,51765,20.75,74202.5,7.51,-13.69,-14.05,0,*73
1532818901.17,51766,20.75,74202.3,7.51,-13.55,-14.05,0,*7F
1532818902.39,51767,20.81,74206.0,7.51,-13.55,-14.05,0,*7E
1532818903.59,51768,20.75,74200.8,7.51,-13.65,-14.11,0,*77
1532818904.81,51769,20.81,74206.8,7.49,-13.69,-14.11,0,*73
1532818906.07,51770,20.75,74206.0,7.49,-13.69,-14.01,0,*7A
1532818907.32,51771,20.81,74206.5,7.47,-13.55,-14.01,0,*7A
1532818908.6,51772,20.81,74206.0,7.49,-13.61,-14.01,0,*70
1532818909.82,51773,20.75,74202.5,7.49,-13.69,-14.11,0,*78
1532818911.04,51774,20.75,74204.3,7.49,-13.73,-14.11,0,*74
1532818912.26,51775,20.75,74202.5,7.47,-13.69,-14.11,0,*70
1532818913.48,51776,20.75,74204.0,7.49,-13.69,-14.11,0,*7D
1532818914.71,51777,20.81,74206.5,7.49,-13.55,-14.11,0,*73
1532818915.96,51778,20.75,74202.0,7.47,-13.69,-14.01,0,*7C
1532818917.21,51779,20.81,74204.3,7.47,-13.69,-14.01,0,*7D
1532818918.46,51780,20.75,74206.0,7.47,-13.51,-13.83,0,*7D
1532818919.7,51781,20.75,74202.3,7.47,-13.55,-13.87,0,*7C
1532818920.95,51782,20.81,74206.3,7.47,-13.55,-13.97,0,*7E
1532818922.2,51783,20.81,74206.3,7.47,-13.55,-13.97,0,*7F
1532818923.46,51784,20.81,74206.8,7.47,-13.55,-14.01,0,*70
1532818924.73,51785,20.75,74202.5,7.47,-13.61,-14.01,0,*76
1532818926.01,51786,20.81,74204.5,7.47,-13.61,-13.97,0,*7D
1532818927.28,51787,20.75,74200.3,7.47,-13.61,-14.01,0,*74
1532818928.53,51788,20.81,74206.8,7.43,-13.65,-14.05,0,*7F
1532818929.78,51789,20.75,74200.5,7.43,-13.73,-14.05,0,*79
1532818931.02,51790,20.81,74204.3,7.43,-13.73,-14.05,0,*71
1532818932.27,51791,20.81,74206.3,7.43,-13.55,-13.87,0,*79
1532818933.48,51792,20.75,74202.0,7.41,-13.47,-13.79,0,*7A
1532818934.69,51793,20.81,74204.0,7.41,-13.47,-13.79,0,*7B
1532818935.88,51794,20.75,74202.3,7.41,-13.55,-13.93,0,*7B
1532818937.1,51795,20.81,74206.3,7.41,-13.65,-14.05,0,*71
1532818938.37,51796,20.81,74204.8,7.43,-13.61,-14.01,0,*70
1532818939.59,51797,20.75,74204.0,7.41,-13.65,-14.01,0,*77
1532818940.84,51798,20.75,74200.5,7.41,-13.61,-14.01,0,*7C
1532818942.09,51799,20.81,74204.5,7.41,-13.61,-14.01,0,*7D
1532818943.3,51800,20.75,74202.8,7.41,-13.47,-13.79,0,*7E
1532818944.51,51801,20.75,74204.8,7.41,-13.47,-13.87,0,*7E
1532818945.73,51802,20.75,74200.5,7.41,-13.47,-13.87,0,*7D
1532818946.94,51803,20.81,74204.0,7.41,-13.47,-13.79,0,*7D
1532818948.13,51804,20.81,74204.5,7.41,-13.43,-13.73,0,*74
1532818949.32,51805,20.75,74202.0,7.41,-13.55,-13.93,0,*7C
1532818950.6,51806,20.75,74206.8,7.39,-13.61,-13.97,0,*73
1532818951.79,51807,20.75,74204.5,7.41,-13.55,-13.93,0,*7E
1532818953.04,51808,20.81,74206.5,7.39,-13.61,-13.93,0,*79
1532818954.29,51809,20.81,74206.8,7.39,-13.65,-14.05,0,*74
1532818955.56,51810,20.75,74202.5,7.39,-13.61,-14.05,0,*78
1532818956.76,51811,20.75,74200.5,7.37,-13.69,-14.11,0,*7A
1532818958.01,51812,20.81,74206.0,7.39,-13.61,-13.93,0,*72
1532818959.25,51813,20.81,74206.3,7.39,-13.47,-13.83,0,*76
1532818960.53,51814,20.81,74204.5,7.39,-13.61,-13.97,0,*70
1532818961.76,51815,20.75,74204.0,7.37,-13.55,-13.97,0,*78
1532818962.98,51816,20.75,74204.3,7.37,-13.43,-13.83,0,*79
1532818964.25,51817,20.75,74206.5,7.39,-13.37,-13.79,0,*70
1532818965.48,51818,20.75,74206.8,7.37,-13.55,-13.97,0,*75
1532818966.71,51819,20.75,74206.8,7.37,-13.51,-13.87,0,*71
1532818967.99,51820,20.81,74208.5,7.39,-13.37,-13.83,0,*71
1532818969.21,51821,20.81,74206.0,7.37,-13.43,-13.83,0,*7D
1532818970.48,51822,20.81,74206.3,7.39,-13.37,-13.79,0,*76
1532818971.72,51823,20.75,74202.5,7.39,-13.33,-13.69,0,*72
1532818972.95,51824,20.81,74208.0,7.37,-13.37,-13.73,0,*74
1532818974.18,51825,20.75,74206.0,7.37,-13.51,-13.83,0,*7A
1532818975.45,51826,20.75,74202.0,7.39,-13.37,-13.79,0,*72
1532818976.68,51827,20.81,74206.5,7.37,-13.51,-13.83,0,*78
1532818977.95,51828,20.75,74202.5,7.39,-13.37,-13.83,0,*79
1532818979.19,51829,20.81,74206.8,7.39,-13.47,-13.79,0,*7A
1532818980.42,51830,20.75,74202.3,7.37,-13.51,-13.83,0,*7E
1532818981.64,51831,20.75,74206.3,7.37,-13.55,-13.83,0,*7B
1532818982.87,51832,20.75,74206.0,7.37,-13.65,-13.97,0,*7E
1532818984.09,51833,20.75,74202.5,7.37,-13.43,-13.83,0,*7E
1532818985.32,51834,20.81,74206.5,7.37,-13.37,-13.73,0,*75
1532818986.58,51835,20.75,74204.5,7.39,-13.33,-13.79,0,*74
1532818987.81,51836,20.75,74204.0,7.37,-13.43,-13.83,0,*7B
1532818989.03,51837,20.81,74206.5,7.37,-13.43,-13.83,0,*7A
1532818990.26,51838,20.75,74200.8,7.37,-13.43,-13.83,0,*75
1532818991.49,51839,20.75,74204.8,7.39,-13.47,-13.79,0,*7B
1532818992.72,51840,20.75,74200.5,7.37,-13.29,-13.69,0,*72
1532818993.94,51841,20.75,74202.5,7.37,-13.37,-13.73,0,*77
1532818995.17,51842,20.81,74204.8,7.37,-13.29,-13.73,0,*7B
1532818996.37,51843,20.75,74204.8,7.37,-13.43,-13.73,0,*76
1532818997.59,51844,20.75,74206.0,7.37,-13.43,-13.83,0,*7E
1532818998.81,51845,20.75,74204.5,7.37,-13.43,-13.83,0,*7F
1532819000.03,51846,20.75,74204.3,7.37,-13.43,-13.79,0,*79
1532819001.28,51847,20.75,74206.8,7.35,-13.43,-13.83,0,*7F
1532819002.52,51848,20.75,74202.8,7.35,-13.43,-13.83,0,*70
1532819003.77,51849,20.75,74204.0,7.35,-13.43,-13.83,0,*71
1532819005.02,51850,20.75,74206.0,7.35,-13.43,-13.87,0,*7D
1532819006.26,51851,20.75,74204.0,7.35,-13.55,-13.83,0,*7F
1532819007.46,51852,20.75,74204.0,7.33,-13.55,-13.93,0,*7B
1532819008.68,51853,20.75,74204.3,7.33,-13.47,-13.87,0,*7C
1532819009.92,51854,20.75,74206.8,7.35,-13.43,-13.83,0,*7D
1532819011.17,51855,20.75,74206.8,7.35,-13.43,-13.83,0,*7C
1532819012.42,51856,20.81,74206.5,7.35,-13.51,-13.87,0,*78
1532819013.62,51857,20.75,74206.8,7.33,-13.43,-13.73,0,*77
1532819014.84,51858,20.75,74202.8,7.33,-13.43,-13.79,0,*72
1532819016.09,51859,20.75,74206.3,7.35,-13.37,-13.69,0,*77
1532819017.31,51860,20.81,74206.0,7.33,-13.33,-13.73,0,*74
1532819018.56,51861,20.75,74200.8,7.35,-13.29,-13.73,0,*78
1532819019.81,51862,20.75,74206.3,7.35,-13.29,-13.55,0,*7F
1532819021.05,51863,20.75,74200.0,7.35,-13.37,-13.73,0,*75
1532819022.33,51864,20.75,74204.0,7.35,-13.37,-13.83,0,*7D
1532819023.55,51865,20.81,74206.3,7.33,-13.47,-13.87,0,*79
1532819024.76,51866,20.75,74204.0,7.33,-13.47,-13.87,0,*7A
1532819025.96,51867,20.75,74206.8,7.33,-13.55,-13.93,0,*7D
1532819027.19,51868,20.75,74206.8,7.33,-13.69,-14.01,0,*71
1532819028.41,51869,20.75,74204.3,7.33,-13.61,-13.93,0,*74
1532819029.64,51870,20.81,74204.8,7.33,-13.55,-13.87,0,*7E
1532819030.89,51871,20.75,74204.5,7.35,-13.51,-13.83,0,*79
1532819032.12,51872,20.75,74202.8,7.33,-13.55,-14.01,0,*75
1532819033.34,51873,20.75,74206.0,7.33,-13.55,-13.87,0,*7D
1532819034.56,51874,20.75,74204.5,7.33,-13.47,-13.87,0,*79
1532819035.78,51875,20.75,74204.8,7.33,-13.47,-13.87,0,*78
1532819037.0,51876,20.75,74204.0,7.33,-13.47,-13.87,0,*7B
1532819038.22,51877,20.75,74204.8,7.33,-13.43,-13.83,0,*7A
1532819039.44,51878,20.75,74204.5,7.33,-13.47,-13.87,0,*75
1532819040.64,51879,20.75,74204.5,7.33,-13.55,-13.93,0,*72
1532819041.84,51880,20.75,74206.3,7.33,-13.55,-13.93,0,*74
1532819043.06,51881,20.75,74206.0,7.33,-13.47,-13.87,0,*73
1532819044.3,51882,20.75,74206.3,7.31,-13.65,-13.97,0,*73
1532819045.53,51883,20.75,74204.0,7.31,-13.51,-13.93,0,*71
1532819046.75,51884,20.75,74206.0,7.31,-13.51,-13.93,0,*76
1532819048.0,51885,20.75,74206.3,7.31,-13.51,-13.83,0,*76
1532819049.28,51886,20.75,74206.5,7.31,-13.61,-13.97,0,*73
1532819050.5,51887,20.75,74204.5,7.29,-13.47,-13.83,0,*7A
1532819051.72,51888,20.75,74202.0,7.29,-13.47,-13.83,0,*75
1532819052.97,51889,20.75,74202.8,7.33,-13.29,-13.61,0,*7B
1532819054.24,51890,20.81,74208.0,7.31,-13.37,-13.79,0,*77
1532819055.51,51891,20.75,74204.0,7.31,-13.37,-13.83,0,*73
1532819056.73,51892,20.75,74206.5,7.29,-13.47,-13.83,0,*7E
1532819057.99,51893,20.75,74206.8,7.31,-13.37,-13.79,0,*74
1532819059.26,51894,20.75,74204.3,7.31,-13.37,-13.79,0,*73
1532819060.5,51895,20.75,74206.0,7.31,-13.47,-13.83,0,*70
1532819061.72,51896,20.75,74200.5,7.29,-13.47,-13.83,0,*7A
1532819062.94,51897,20.75,74206.0,7.31,-13.51,-13.93,0,*74
1532819064.21,51898,20.75,74204.5,7.31,-13.37,-13.79,0,*7F
1532819065.45,51899,20.75,74204.5,7.31,-13.47,-13.83,0,*7C
1532819066.71,51900,20.81,74206.8,7.31,-13.37,-13.79,0,*7F
1532819067.96,51901,20.75,74206.8,7.29,-13.37,-13.79,0,*77
1532819069.2,51902,20.75,74204.5,7.31,-13.33,-13.65,0,*74
1532819070.45,51903,20.75,74202.0,7.31,-13.33,-13.65,0,*75
1532819071.68,51904,20.75,74200.5,7.31,-13.47,-13.79,0,*7C
1532819072.93,51905,20.75,74204.0,7.31,-13.23,-13.61,0,*76
1532819074.14,51906,20.75,74204.8,7.29,-13.23,-13.65,0,*78
1532819075.36,51907,20.75,74206.5,7.29,-13.47,-13.83,0,*73
1532819076.58,51908,20.75,74204.5,7.29,-13.47,-13.83,0,*7C
1532819077.85,51909,20.75,74206.0,7.31,-13.37,-13.83,0,*73
1532819079.07,51910,20.81,74210.0,7.31,-13.23,-13.65,0,*76
1532819080.3,51911,20.75,74206.3,7.31,-13.47,-13.79,0,*78
1532819081.56,51912,20.75,74206.0,7.31,-13.23,-13.61,0,*70
1532819082.8,51913,20.75,74202.3,7.31,-13.11,-13.61,0,*70
1532819084.05,51914,20.75,74206.0,7.31,-13.19,-13.61,0,*7F
1532819085.27,51915,20.75,74206.0,7.31,-12.97,-13.47,0,*7D
1532819086.5,51916,20.75,74202.8,7.29,-12.93,-13.33,0,*70
1532819087.75,51917,20.75,74204.5,7.31,-13.07,-13.37,0,*70
1532819088.97,51918,20.75,74204.0,7.33,-13.15,-13.61,0,*7D
1532819090.2,51919,20.75,74202.0,7.33,-13.19,-13.61,0,*70
1532819091.39,51920,20.75,74202.0,7.33,-13.07,-13.47,0,*71
1532819092.59,51921,20.75,74206.8,7.33,-13.15,-13.55,0,*70
1532819093.82,51922,20.75,74204.0,7.33,-13.29,-13.55,0,*7C
1532819095.02,51923,20.75,74200.5,7.33,-13.19,-13.69,0,*71
1532819096.26,51924,20.75,74202.0,7.35,-13.29,-13.69,0,*73
1532819097.49,51925,20.75,74202.5,7.33,-13.33,-13.73,0,*74
1532819098.71,51926,20.75,74202.8,7.33,-13.29,-13.69,0,*77
1532819099.93,51927,20.75,74202.0,7.33,-13.33,-13.73,0,*76
1532819101.15,51928,20.75,74200.5,7.33,-13.33,-13.73,0,*79
1532819102.37,51929,20.75,74202.3,7.33,-13.47,-13.79,0,*71
1532819103.56,51930,20.75,74204.0,7.33,-13.55,-13.93,0,*7E
1532819104.76,51931,20.75,74200.3,7.33,-13.55,-13.93,0,*7F
1532819105.98,51932,20.75,74202.0,7.33,-13.47,-13.87,0,*7A
1532819107.2,51933,20.75,74204.3,7.31,-13.51,-13.93,0,*7B
1532819108.43,51934,20.75,74204.5,7.31,-13.51,-13.93,0,*7C
1532819109.67,51935,20.75,74204.5,7.31,-13.61,-13.93,0,*7E
1532819110.89,51936,20.75,74204.0,7.31,-13.51,-13.93,0,*7E
1532819112.17,51937,20.81,74210.8,7.31,-13.61,-13.97,0,*78
1532819113.37,51938,20.75,74206.3,7.29,-13.51,-13.93,0,*79
1532819114.63,51939,20.75,74204.5,7.31,-13.51,-13.97,0,*75
1532819115.89,51940,20.75,74208.5,7.29,-13.61,-13.97,0,*71
1532819117.17,51941,20.81,74210.5,7.31,-13.61,-13.97,0,*79
1532819118.38,51942,20.75,74204.5,7.29,-13.47,-13.79,0,*77
1532819119.6,51943,20.75,74206.8,7.29,-13.47,-13.79,0,*76
1532819120.82,51944,20.75,74202.8,7.29,-13.33,-13.73,0,*78
1532819122.04,51945,20.75,74206.0,7.29,-13.33,-13.65,0,*7E
1532819123.29,51946,20.75,74206.8,7.31,-13.33,-13.65,0,*74
1532819124.49,51947,20.75,74206.3,7.29,-13.23,-13.73,0,*7A
1532819125.71,51948,20.75,74206.8,7.29,-13.33,-13.73,0,*74
1532819126.93,51949,20.75,74204.5,7.29,-13.33,-13.73,0,*75
1532819128.15,51950,20.75,74204.5,7.29,-13.47,-13.83,0,*71
1532819129.42,51951,20.75,74204.3,7.31,-13.37,-13.79,0,*7B
1532819130.66,51952,20.75,74204.8,7.31,-13.47,-13.83,0,*7A
1532819131.89,51953,20.75,74206.3,7.29,-13.51,-13.83,0,*75
1532819133.12,51954,20.75,74206.3,7.29,-13.51,-13.83,0,*72
1532819134.37,51955,20.75,74206.0,7.29,-13.61,-13.83,0,*70
1532819135.61,51956,20.75,74206.0,7.29,-13.37,-13.79,0,*75
1532819136.84,51957,20.75,74204.8,7.29,-13.37,-13.73,0,*7E
1532819138.06,51958,20.75,74208.5,7.29,-13.37,-13.73,0,*71
1532819139.3,51959,20.75,74204.8,7.29,-13.19,-13.61,0,*7F
1532819140.54,51960,20.75,74204.0,7.29,-13.33,-13.79,0,*74
1532819141.79,51961,20.75,74202.8,7.29,-13.37,-13.83,0,*74
1532819143.01,51962,20.75,74206.3,7.29,-13.33,-13.65,0,*7B
1532819144.25,51963,20.75,74204.8,7.31,-13.33,-13.73,0,*74
1532819145.5,51964,20.75,74204.0,7.29,-13.33,-13.79,0,*70
1532819146.75,51965,20.75,74204.0,7.29,-13.37,-13.83,0,*70
1532819147.98,51966,20.75,74206.3,7.29,-13.51,-13.83,0,*73
1532819149.21,51967,20.75,74204.5,7.29,-13.51,-13.83,0,*72
1532819150.45,51968,20.75,74206.3,7.29,-13.33,-13.79,0,*7C
1532819151.66,51969,20.75,74206.3,7.29,-13.47,-13.79,0,*7E
1532819152.93,51970,20.75,74208.0,7.27,-13.37,-13.79,0,*7F
1532819154.19,51971,20.75,74202.8,7.27,-13.51,-13.83,0,*7B
1532819155.44,51972,20.81,74208.5,7.27,-13.51,-13.87,0,*7C
1532819156.69,51973,20.75,74204.0,7.27,-13.51,-13.87,0,*7D
1532819157.94,51974,20.75,74206.8,7.27,-13.51,-13.87,0,*7A
1532819159.19,51975,20.75,74204.8,7.27,-13.43,-13.83,0,*7C
1532819160.43,51976,20.75,74204.5,7.27,-13.55,-13.87,0,*7C
1532819161.68,51977,20.75,74204.5,7.27,-13.55,-13.87,0,*7D
1532819162.93,51978,20.75,74206.8,7.27,-13.55,-13.97,0,*73
1532819164.19,51979,20.75,74206.3,7.27,-13.55,-13.97,0,*72
1532819165.44,51980,20.75,74204.5,7.27,-13.51,-13.83,0,*75
1532819166.69,51981,20.75,74206.0,7.27,-13.51,-13.83,0,*74
1532819167.94,51982,20.75,74206.5,7.27,-13.43,-13.83,0,*74
1532819169.16,51983,20.75,74206.0,7.25,-13.43,-13.83,0,*77
1532819170.37,51984,20.75,74206.8,7.25,-13.43,-13.79,0,*75
1532819171.62,51985,20.75,74206.3,7.27,-13.29,-13.69,0,*7B
1532819172.89,51986,20.75,74204.8,7.27,-13.37,-13.79,0,*76
1532819174.1,51987,20.75,74206.3,7.25,-13.43,-13.79,0,*76
1532819175.34,51988,20.75,74204.0,7.27,-13.43,-13.79,0,*7B
1532819176.61,51989,20.75,74206.0,7.27,-13.29,-13.79,0,*76
1532819177.87,51990,20.75,74206.3,7.27,-13.51,-13.87,0,*70
1532819179.09,51991,20.75,74208.0,7.25,-13.51,-13.87,0,*73
1532819180.31,51992,20.75,74202.8,7.25,-13.43,-13.87,0,*73
1532819181.53,51993,20.75,74206.8,7.25,-13.43,-13.87,0,*72
1532819182.75,51994,20.75,74204.8,7.25,-13.43,-13.87,0,*75
1532819184.0,51995,20.75,74206.3,7.27,-13.51,-13.87,0,*75
1532819185.23,51996,20.75,74206.5,7.25,-13.51,-13.87,0,*74
1532819186.45,51997,20.75,74204.0,7.25,-13.55,-13.87,0,*71
1532819187.67,51998,20.75,74204.8,7.25,-13.51,-13.87,0,*7A
1532819188.89,51999,20.75,74204.0,7.25,-13.55,-13.87,0,*7F
1532819190.13,52000,20.75,74204.8,7.21,-13.55,-14.01,0,*78
1532819191.35,52001,20.75,74208.8,7.21,-13.55,-13.87,0,*70
1532819192.54,52002,20.75,74206.8,7.21,-13.47,-13.93,0,*75
1532819193.74,52003,20.75,74208.8,7.21,-13.55,-13.93,0,*77
1532819194.99,52004,20.75,74206.3,7.19,-13.73,-13.97,0,*7B
1532819196.22,52005,20.75,74204.5,7.21,-13.69,-14.05,0,*76
1532819197.45,52006,20.75,74204.5,7.21,-13.69,-14.05,0,*75
1532819198.7,52007,20.75,74204.5,7.19,-13.65,-14.05,0,*73
1532819199.92,52008,20.75,74202.3,7.21,-13.65,-14.05,0,*77
1532819201.17,52009,20.75,74204.3,7.19,-13.65,-14.05,0,*7D
1532819202.41,52010,20.75,74206.8,7.19,-13.65,-14.05,0,*75
1532819203.66,52011,20.75,74208.8,7.19,-13.65,-13.97,0,*78
1532819204.86,52012,20.75,74204.5,7.21,-13.47,-13.93,0,*74
1532819206.1,52013,20.75,74204.8,7.19,-13.61,-13.93,0,*7A
1532819207.35,52014,20.75,74204.5,7.19,-13.73,-14.05,0,*76
1532819208.58,52015,20.75,74204.3,7.21,-13.55,-14.01,0,*7C
1532819209.84,52016,20.75,74206.0,7.19,-13.51,-13.97,0,*78
1532819211.11,52017,20.75,74206.8,7.19,-13.61,-13.97,0,*7A
1532819212.39,52018,20.75,74206.0,7.19,-13.61,-13.97,0,*75
1532819213.65,52019,20.75,74208.0,7.19,-13.51,-13.97,0,*77
1532819214.86,52020,20.75,74206.3,7.19,-13.47,-13.93,0,*7E
1532819216.08,52021,20.75,74202.0,7.21,-13.47,-13.87,0,*71
1532819217.32,52022,20.75,74206.0,7.19,-13.47,-13.79,0,*78
1532819218.53,52023,20.75,74206.3,7.19,-13.47,-13.93,0,*7D
1532819219.78,52024,20.75,74204.0,7.19,-13.51,-13.87,0,*78
1532819221.02,52025,20.75,74206.8,7.19,-13.47,-13.79,0,*7F
1532819222.22,52026,20.75,74204.8,7.17,-13.51,-13.93,0,*71
1532819223.44,52027,20.75,74204.0,7.21,-13.55,-13.87,0,*74
1532819224.66,52028,20.75,74206.3,7.19,-13.51,-13.93,0,*71
1532819225.94,52029,20.75,74204.8,7.19,-13.61,-13.97,0,*77
1532819227.18,52030,20.81,74208.5,7.19,-13.47,-13.87,0,*7A
1532819228.46,52031,20.75,74204.0,7.19,-13.61,-13.97,0,*7E
1532819229.74,52032,20.75,74204.0,7.19,-13.61,-13.97,0,*7D
1532819230.93,52033,20.75,74206.3,7.17,-13.47,-13.93,0,*72
1532819232.15,52034,20.75,74206.3,7.17,-13.51,-13.87,0,*77
1532819233.37,52035,20.75,74206.5,7.17,-13.61,-13.93,0,*70
1532819234.63,52036,20.75,74206.0,7.17,-13.61,-13.97,0,*77
1532819235.88,52037,20.75,74206.3,7.17,-13.61,-13.97,0,*76
1532819237.13,52038,20.75,74206.3,7.17,-13.61,-13.97,0,*79
1532819238.39,52039,20.75,74206.3,7.15,-13.65,-14.01,0,*76
1532819239.64,52040,20.75,74204.8,7.17,-13.61,-14.05,0,*7A
1532819240.89,52041,20.75,74208.3,7.17,-13.61,-13.97,0,*77
1532819242.15,52042,20.75,74204.0,7.15,-13.65,-13.97,0,*72
1532819243.37,52043,20.75,74206.0,7.17,-13.65,-13.97,0,*71
1532819244.6,52044,20.75,74208.0,7.17,-13.65,-13.97,0,*76
1532819245.86,52045,20.75,74208.0,7.15,-13.69,-14.01,0,*71
1532819247.11,52046,20.75,74210.8,7.15,-13.79,-14.15,0,*76
1532819248.33,52047,20.75,74210.5,7.15,-13.69,-14.11,0,*72
1532819249.56,52048,20.75,74206.5,7.15,-13.69,-14.11,0,*7D
1532819250.78,52049,20.75,74206.8,7.15,-13.69,-14.11,0,*7C
1532819252.01,52050,20.75,74204.5,7.13,-13.69,-14.01,0,*73
1532819253.2,52051,20.75,74204.8,7.13,-13.69,-14.11,0,*73
1532819254.42,52052,20.75,74206.3,7.15,-13.55,-13.93,0,*74
1532819255.65,52053,20.75,74204.0,7.15,-13.51,-13.93,0,*71
1532819256.91,52054,20.75,74206.8,7.15,-13.65,-13.97,0,*75
1532819258.16,52055,20.75,74204.8,7.15,-13.65,-14.01,0,*7C
1532819259.39,52056,20.75,74204.8,7.13,-13.65,-14.01,0,*79
1532819260.58,52057,20.75,74202.8,7.13,-13.69,-14.11,0,*75
1532819261.81,52058,20.75,74206.5,7.13,-13.55,-14.01,0,*74
1532819263.04,52059,20.75,74204.0,7.13,-13.69,-14.01,0,*7A
1532819264.28,52060,20.75,74206.5,7.11,-13.69,-14.01,0,*72
1532819265.51,52061,20.75,74206.5,7.13,-13.65,-14.01,0,*7D
1532819266.73,52062,20.75,74206.3,7.11,-13.69,-14.15,0,*75
1532819267.96,52063,20.75,74206.0,7.11,-13.73,-14.19,0,*73
1532819269.18,52064,20.75,74206.5,7.13,-13.69,-14.01,0,*74
1532819270.4,52065,20.75,74206.3,7.11,-13.73,-14.19,0,*75
1532819271.63,52066,20.75,74206.5,7.13,-13.69,-13.97,0,*7E
1532819272.85,52067,20.75,74206.3,7.13,-13.79,-14.11,0,*77
1532819274.12,52068,20.75,74208.5,7.11,-13.61,-14.01,0,*72
1532819275.4,52069,20.75,74206.3,7.11,-13.61,-14.01,0,*73
1532819276.65,52070,20.75,74204.5,7.11,-13.55,-14.01,0,*7C
1532819277.84,52071,20.75,74204.5,7.09,-13.73,-14.11,0,*71
1532819279.07,52072,20.75,74202.3,7.09,-13.73,-14.05,0,*77
1532819280.29,52073,20.75,74202.0,7.09,-13.65,-14.01,0,*75
1532819281.49,52074,20.75,74204.3,7.09,-13.51,-13.93,0,*79
1532819282.71,52075,20.75,74208.8,7.09,-13.37,-13.73,0,*76
1532819283.95,52076,20.75,74208.0,7.13,-13.37,-13.79,0,*74
1532819285.2,52077,20.75,74206.8,7.11,-13.43,-13.83,0,*71
1532819286.45,52078,20.75,74204.3,7.11,-13.43,-13.97,0,*7B
1532819287.7,52079,20.75,74202.8,7.11,-13.69,-14.01,0,*7A
1532819288.95,52080,20.75,74204.8,7.11,-13.69,-14.01,0,*7C
1532819290.2,52081,20.75,74206.8,7.11,-13.55,-14.01,0,*72
1532819291.45,52082,20.75,74204.8,7.11,-13.55,-14.01,0,*71
1532819292.7,52083,20.75,74204.8,7.11,-13.55,-13.97,0,*78
1532819293.98,52084,20.75,74206.8,7.11,-13.61,-13.97,0,*78
1532819295.22,52085,20.75,74202.8,7.11,-13.69,-14.05,0,*7D
1532819296.47,52086,20.75,74206.8,7.11,-13.69,-14.01,0,*7A
1532819297.7,52087,20.75,74206.5,7.09,-13.73,-14.05,0,*7D
1532819298.97,52088,20.75,74206.5,7.07,-13.61,-14.05,0,*7F
1532819300.2,52089,20.75,74208.5,7.07,-13.51,-13.93,0,*75
1532819301.4,52090,20.75,74208.8,7.09,-13.51,-13.93,0,*73